Flag for U.S.A. Weather past 2 weeks in Casper, Wyoming, U.S.A.

Now
31 °F

Clear.


Feels Like: 31 °F
Forecast: 44 / 73 °F
Wind: No wind

Location: Natrona County International Airport

Current Time: Oct 20, 2014 at 4:37:09 AM

Latest Report: Oct 20, 2014 at 3:53 AM


Visibility: 10 mi

Pressure: 30.02 "Hg

Humidity: 82%

Dew point: 26 °F

Location of CasperLocation

Historic Weather in Casper — Graph

°F

Casper temperature yesterday

Maximum temperature yesterday: 70 °F (at 2:53 PM)
Minimum temperature yesterday: 37 °F (at 3:53 AM)
Average temperature yesterday: 50 °F

Past Weeks' High & Low Weather Summary

 TemperatureHumidityPressure
High75 °F (Oct 7, 2:53 PM)97% (Oct 10, 5:53 AM)30.25 "Hg (Oct 10, 5:53 AM)
Low28 °F (Oct 17, 5:53 AM)12% (Oct 16, 12:53 PM)29.54 "Hg (Oct 12, 2:53 AM)
Average51 °F52%29.97 "Hg
* Reported Oct 5 2:53 AM — Oct 20 2:53 AM, Casper, Weather by CustomWeather, © 2014

Note: Actual official high and low records may vary slightly from our data, if they occured in-between our weather recording intervals... More about our weather records

Advertising

Casper weather history for previous 24 hours

 ConditionsComfort  
Time TempWeatherWind HumidityBarometerVisibility
2:53 AM
Oct 20
35 °FClear.No wind78%30.02 "Hg10 mi
1:53 AM40 °FClear.3 mph70%30.01 "Hg10 mi
12:53 AM35 °FClear.3 mph78%30.04 "Hg10 mi
11:53 PM
Oct 19
37 °FClear.No wind76%30.05 "Hg10 mi
10:53 PM37 °FClear.No wind76%30.06 "Hg10 mi
8:53 PM45 °FClear.8 mph58%30.05 "Hg10 mi
7:53 PM42 °FClear.No wind60%30.09 "Hg10 mi
6:53 PM50 °FSunny.No wind46%30.06 "Hg10 mi
5:53 PM63 °FSunny.6 mph30%30.01 "Hg10 mi
4:53 PM70 °FSunny.9 mph22%29.98 "Hg10 mi
3:53 PM70 °FSunny.No wind22%29.98 "Hg10 mi
2:53 PM70 °FSunny.8 mph23%29.99 "Hg10 mi
1:53 PM68 °FSunny.3 mph25%30.01 "Hg10 mi
12:53 PM66 °FSunny.6 mph27%30.03 "Hg10 mi
11:53 AM63 °FSunny.8 mph30%30.07 "Hg10 mi
10:53 AM59 °FSunny.9 mph35%30.09 "Hg10 mi
9:53 AM54 °FSunny.7 mph41%30.09 "Hg10 mi
8:53 AM47 °FSunny.8 mph54%30.12 "Hg10 mi
7:53 AM37 °FClear.3 mph73%30.13 "Hg10 mi
6:53 AM37 °FClear.8 mph70%30.08 "Hg10 mi
5:53 AM37 °FClear.8 mph73%30.04 "Hg10 mi
4:53 AM38 °FClear.6 mph70%29.99 "Hg10 mi
Weather by CustomWeather, © 2014

See weather overviewHow to use our weather pages